Orbital Elements at Epoch 2459000.5 (2020-May-31.0) TDB
Reference: JPL 13 (heliocentric ecliptic J2000)
Element | Value | Uncertainty (1-sigma) | Units |
e | .01029812559236964 | 8.5613e-08 | |
a | 2.778131142263312 | 2.3141e-08 | au |
q | 2.749521598848211 | 2.4293e-07 | au |
i | 10.93174910097343 | 9.7541e-06 | deg |
node | 14.80896740988413 | 2.292e-05 | deg |
peri | 193.6235147243553 | 0.00027982 | deg |
M | 140.5317988831885 | 0.00028151 | deg |
tp | 2458340.263323622130 (2018-Aug-09.76332362) | 0.00132 | TDB |
period | 1691.326841219756 4.63 | 2.1132e-05 5.786e-08 | d yr |
n | .2128506396435914 | 2.6595e-09 | deg/d |
Q | 2.806740685678413 | 2.3379e-08 | au |
|
| | Orbit Determination Parameters
Additional Information
|